1321056027073,22.8804
1321056087073,22.8872
1321056147073,22.8545
1321056207073,22.8905
1321056267073,22.8452
1321056327073,22.8627
1321056387073,22.8214
1321056447073,22.9008
1321056507073,22.8872
1321056567073,22.8240
1321056627073,22.7537
1321056687073,22.7932
1321056747073,22.8437
1321056807073,22.8385
1321056867073,22.7496
1321056927073,22.8027
1321056987073,22.7969
1321057047073,22.7772
1321057107073,22.7502
1321057167073,22.7666
1321057227073,22.8211
1321057287073,22.7520
1321057347073,22.7461
1321057407073,22.7477
1321057467073,22.7910
1321057527073,22.7709
1321057587073,22.7682
1321057647073,22.7821
1321057707073,22.7522
1321057767073,22.7917
1321057827073,22.7304
1321057887073,22.7922
1321057947073,22.8058
1321058007073,22.7775
1321058067073,22.8180
1321058127073,22.8193
1321058187073,22.7704
1321058247073,22.7613
1321058307073,22.8158
1321058367073,22.8181
1321058427073,22.8214
1321058487073,22.7945
1321058547073,22.7508
1321058607073,22.8232
1321058667073,22.7983
1321058727073,22.8427
1321058787073,22.8009
1321058847073,22.8143
1321058907073,22.7858
1321058967073,22.7947
1321059027073,22.7683
1321059087073,22.7834
1321059147073,22.7840
1321059207073,22.7973
1321059267073,22.7391
1321059327073,22.7806
1321059387073,22.7260
1321059447073,22.7521
1321059507073,22.7389
1321059567073,22.7578
1321059627083,22.7646
1321059687083,22.7321
1321059747083,22.7345
1321059807083,22.7592
1321059867083,22.6783
1321059927083,22.8234
1321059987083,22.8276
1321060047083,22.7179
1321060107083,22.6858
1321060167083,22.6880
1321060227083,22.7475
1321060287083,22.7152
1321060347083,22.7272
1321060407083,22.6915
1321060467083,22.6984
1321060527083,22.7337
1321060587083,22.6303
1321060647083,22.6770
1321060707083,22.7068
1321060767083,22.7618
1321060827083,22.7236
1321060887083,22.6994
1321060947083,22.7171
1321061007083,22.6823
1321061067083,22.7133
1321061127083,22.7655
1321061187083,22.7051
1321061247083,22.7428
1321061307083,22.7337
1321061367083,22.6852
1321061427083,22.7588
1321061487083,22.7030
1321061547083,22.7180
1321061607083,22.7059
1321061667083,22.7159
1321061727083,22.7392
1321061787083,22.6619
1321061847083,22.7104
1321061907083,22.7334
1321061967083,22.6546
1321062027083,22.6597
1321062087083,22.7432
1321062147083,22.6554
1321062207083,22.7063
1321062267083,22.6808
1321062327083,22.7511
1321062387083,22.6703
1321062447083,22.6716
1321062507083,22.6949
1321062567083,22.6577
1321062627083,22.7095
1321062687083,22.7420
1321062747083,22.6995
1321062807083,22.7772
1321062867083,22.7427
1321062927083,22.7016
1321062987083,22.7124
1321063047083,22.7283
1321063107083,22.7346
1321063167083,22.7407
1321063227093,22.7620
1321063287093,22.7329
1321063347093,22.7061
1321063407093,22.7273
1321063467093,22.7349
1321063527093,22.7452
1321063587093,22.7637
1321063647093,22.7814
1321063707093,22.7552
1321063767093,22.7398
1321063827093,22.7154
1321063887093,22.6784
1321063947093,22.7500
1321064007093,22.6865
1321064067093,22.7215
1321064127093,22.7367
1321064187093,22.7043
1321064247093,22.6856
1321064307093,22.6949
1321064367093,22.7319
1321064427093,22.7302
1321064487093,22.6664
1321064547093,22.6635
1321064607093,22.7053
1321064667093,22.6517
1321064727093,22.7406
1321064787093,22.7176
1321064847093,22.7237
1321064907093,22.6673
1321064967093,22.6835
1321065027093,22.6992
1321065087093,22.6926
1321065147093,22.7241
1321065207093,22.7310
1321065267093,22.7459
1321065327093,22.6757
1321065387093,22.7288
1321065447093,22.6958
1321065507093,22.7111
1321065567093,22.6195
1321065627093,22.7014
1321065687093,22.6784
1321065747093,22.6385
1321065807093,22.6963
1321065867093,22.6664
1321065927093,22.6818
1321065987093,22.7110
1321066047093,22.6850
1321066107093,22.6922
1321066167093,22.7261
1321066227093,22.6529
1321066287093,22.6741
1321066347093,22.6325
1321066407093,22.6913
1321066467093,22.6836
1321066527093,22.7194
1321066587093,22.6909
1321066647093,22.7211
1321066707093,22.7521
1321066767093,22.7028
1321066827103,22.6296
1321066887103,22.6634
1321066947103,22.7175
1321067007103,22.6783
1321067067103,22.6824
1321067127103,22.6811
1321067187103,22.7423
1321067247103,22.6811
1321067307103,22.6806
1321067367103,22.6936
1321067427103,22.7271
1321067487103,22.7005
1321067547103,22.6859
1321067607103,22.7152
1321067667103,22.6931
1321067727103,22.6994
1321067787103,22.6945
1321067847103,22.7538
1321067907103,22.7343
1321067967103,22.7356
1321068027103,22.7034
1321068087103,22.7672
1321068147103,22.7540
1321068207103,22.7359
1321068267103,22.7157
1321068327103,22.6523
1321068387103,22.6810
1321068447103,22.7123
1321068507103,22.7207
1321068567103,22.7125
1321068627103,22.7071
1321068687103,22.7023
1321068747103,22.6920
1321068807103,22.6620
1321068867103,22.6958
1321068927103,22.6731
1321068987103,22.6733
1321069047103,22.6934
1321069107103,22.6792
1321069167103,22.7133
1321069227103,22.7736
1321069287103,22.7445
1321069347103,22.6912
1321069407103,22.7107
1321069467103,22.7368
1321069527103,22.6214
1321069587103,22.7259
1321069647103,22.6689
1321069707103,22.6389
1321069767103,22.7459
1321069827103,22.7121
1321069887103,22.7591
1321069947103,22.6995
1321070007103,22.6533
1321070067103,22.7766
1321070127103,22.7194
1321070187103,22.7294
1321070247103,22.7241
1321070307103,22.6938
1321070367103,22.7589
1321070427113,22.7115
1321070487113,22.7166
1321070547113,22.6566
1321070607113,22.7712
1321070667113,22.7557
1321070727113,22.7879
1321070787113,22.6947
1321070847113,22.6807
1321070907113,22.6735
1321070967113,22.6665
1321071027113,22.7001
1321071087113,22.6787
1321071147113,22.7003
1321071207113,22.6780
1321071267113,22.6455
1321071327113,22.6490
1321071387113,22.6767
1321071447113,22.6668
1321071507113,22.6731
1321071567113,22.6607
1321071627113,22.6447
1321071687113,22.6948
1321071747113,22.6430
1321071807113,22.6657
1321071867113,22.6858
1321071927113,22.6603
1321071987113,22.7172
1321072047113,22.5873
1321072107113,22.6729
1321072167113,22.6370
1321072227113,22.6452
1321072287113,22.6693
1321072347113,22.6178
1321072407113,22.5855
1321072467113,22.6247
1321072527113,22.6635
1321072587113,22.7329
1321072647113,22.6598
1321072707113,22.6705
1321072767113,22.6565
1321072827113,22.6253
1321072887113,22.6141
1321072947113,22.6290
1321073007113,22.6011
1321073067113,22.7042
1321073127113,22.6803
1321073187113,22.6651
1321073247113,22.7037
1321073307113,22.6175
1321073367113,22.6050
1321073427113,22.6435
1321073487113,22.7031
1321073547113,22.6713
1321073607113,22.6347
1321073667113,22.6574
1321073727113,22.6301
1321073787113,22.6756
1321073847113,22.6824
1321073907113,22.6395
1321073967113,22.6188
1321074027123,22.6560
1321074087123,22.6022
1321074147123,22.6528
1321074207123,22.6443
1321074267123,22.6508
1321074327123,22.7165
1321074387123,22.6175
1321074447123,22.6932
1321074507123,22.6999
1321074567123,22.6653
1321074627123,22.6410
1321074687123,22.7203
1321074747123,22.6413
1321074807123,22.6069
1321074867123,22.6094
1321074927123,22.6318
1321074987123,22.6531
1321075047123,22.6846
1321075107123,22.6678
1321075167123,22.6486
1321075227123,22.6723
1321075287123,22.6728
1321075347123,22.6886
1321075407123,22.6779
1321075467123,22.7094
1321075527123,22.7081
1321075587123,22.7214
1321075647123,22.7015
1321075707123,22.7098
1321075767123,22.7017
1321075827123,22.7402
1321075887123,22.6679
1321075947123,22.6858
1321076007123,22.6296
1321076067123,22.6937
1321076127123,22.7575
1321076187123,22.7333
1321076247123,22.6741
1321076307123,22.6434
1321076367123,22.6742
1321076427123,22.7131
1321076487123,22.6873
1321076547123,22.6475
1321076607123,22.6848
1321076667123,22.6484
1321076727123,22.6094
1321076787123,22.6350
1321076847123,22.6134
1321076907123,22.6605
1321076967123,22.6411
1321077027123,22.6877
1321077087123,22.6540
1321077147123,22.6648
1321077207123,22.6708
1321077267123,22.6573
1321077327123,22.6886
1321077387123,22.6610
1321077447123,22.6275
1321077507123,22.6339
1321077567123,22.5809
1321077627133,22.6223
1321077687133,22.6183
1321077747133,22.7049
1321077807133,22.6615
1321077867133,22.6669
1321077927133,22.6692
1321077987133,22.6664
1321078047133,22.6425
1321078107133,22.6419
1321078167133,22.6688
1321078227133,22.6142
1321078287133,22.6599
1321078347133,22.7002
1321078407133,22.7157
1321078467133,22.6999
1321078527133,22.7014
1321078587133,22.6817
1321078647133,22.6735
1321078707133,22.6138
1321078767133,22.6327
1321078827133,22.6444
1321078887133,22.6889
1321078947133,22.6559
1321079007133,22.6542
1321079067133,22.6525
1321079127133,22.6755
1321079187133,22.6443
1321079247133,22.7137
1321079307133,22.6460
1321079367133,22.6746
1321079427133,22.7003
1321079487133,22.6574
1321079547133,22.7010
1321079607133,22.6582
1321079667133,22.6538
1321079727133,22.7364
1321079787133,22.7207
1321079847133,22.6771
1321079907133,22.7242
1321079967133,22.7020
1321080027133,22.6687
1321080087133,22.7028
1321080147133,22.7048
1321080207133,22.6724
1321080267133,22.6624
1321080327133,22.7384
1321080387133,22.7016
1321080447133,22.7451
1321080507133,22.7196
1321080567133,22.8015
1321080627133,22.7736
1321080687133,22.7642
1321080747133,22.7507
1321080807133,22.8115
1321080867133,22.7775
1321080927133,22.7455
1321080987133,22.7713
1321081047133,22.7387
1321081107133,22.7790
1321081167133,22.7836
1321081227143,22.7935
1321081287143,22.8721
1321081347143,22.8638
1321081407143,22.8425
1321081467143,22.7764
1321081527143,22.7780
1321081587143,22.8085
1321081647143,22.8146
1321081707143,22.7879
1321081767143,22.7979
1321081827143,22.7487
1321081887143,22.7422
1321081947143,22.7092
1321082007143,22.7144
1321082067143,22.6981
1321082127143,22.7656
1321082187143,22.7528
1321082247143,22.7628
1321082307143,22.7595
1321082367143,22.7517
1321082427143,22.7856
1321082487143,22.7712
1321082547143,22.7234
1321082607143,22.6875
1321082667143,22.6906
1321082727143,22.6964
1321082787143,22.7496
1321082847143,22.7764
1321082907143,22.6996
1321082967143,22.7894
1321083027143,22.8187
1321083087143,22.7851
1321083147143,22.7666
1321083207143,22.7507
1321083267143,22.7216
1321083327143,22.7490
1321083387143,22.7695
1321083447143,22.7250
1321083507143,22.7006
1321083567143,22.6937
1321083627143,22.7207
1321083687143,22.6718
1321083747143,22.7307
1321083807143,22.7121
1321083867143,22.7340
1321083927143,22.7724
1321083987143,22.6786
1321084047143,22.7777
1321084107143,22.8477
1321084167143,22.8505
1321084227143,22.8288
1321084287143,22.7990
1321084347143,22.7836
1321084407143,22.7758
1321084467143,22.7567
1321084527143,22.7929
1321084587143,22.8101
1321084647143,22.8389
1321084707143,22.8210
1321084767143,22.8017
1321084827154,22.8250
1321084887154,22.7761
1321084947154,22.7582
1321085007154,22.7772
1321085067154,22.7638
1321085127154,22.7452
1321085187154,22.7427
1321085247154,22.7095
1321085307154,22.7549
1321085367154,22.7290
1321085427154,22.7017
1321085487154,22.7361
1321085547154,22.7000
1321085607154,22.6591
1321085667154,22.7185
1321085727154,22.7162
1321085787154,22.6793
1321085847154,22.6497
1321085907154,22.6757
1321085967154,22.7051
1321086027154,22.6747
1321086087154,22.6414
1321086147154,22.6940
1321086207154,22.7075
1321086267154,22.7097
1321086327154,22.7115
1321086387154,22.7272
1321086447154,22.7411
1321086507154,22.6712
1321086567154,22.7103
1321086627154,22.7493
1321086687154,22.7468
1321086747154,22.7028
1321086807154,22.6728
1321086867154,22.7291
1321086927154,22.6956
1321086987154,22.7325
1321087047154,22.7030
1321087107154,22.7080
1321087167154,22.6522
1321087227154,22.6441
1321087287154,22.7035
1321087347154,22.7430
1321087407154,22.6838
1321087467154,22.7355
1321087527154,22.6605
1321087587154,22.7290
1321087647154,22.6934
1321087707154,22.7387
1321087767154,22.7101
1321087827154,22.7995
1321087887154,22.7628
1321087947154,22.7685
1321088007154,22.7453
1321088067154,22.7556
1321088127154,22.7519
1321088187154,22.7412
1321088247154,22.7553
1321088307154,22.6738
1321088367154,22.7157
1321088427165,22.7349
1321088487165,22.6840
1321088547165,22.7065
1321088607165,22.7288
1321088667165,22.7446
1321088727165,22.7404
1321088787165,22.7544
1321088847165,22.9878
1321088907165,22.8081
1321088967165,22.7628
1321089027165,22.7947
1321089087165,22.7669
1321089147165,22.7891
1321089207165,22.7895
1321089267165,22.7546
1321089327165,22.6428
1321089387165,22.7945
1321089447165,22.7995
1321089507165,22.7919
1321089567165,22.7716
1321089627165,22.7049
1321089687165,22.7904
1321089747165,22.8199
1321089807165,22.7512
1321089867165,22.7554
1321089927165,22.7344
1321089987165,22.7953
1321090047165,22.7214
1321090107165,22.7161
1321090167165,22.7553
1321090227165,22.7043
1321090287165,22.7290
1321090347165,22.7300
1321090407165,22.7480
1321090467165,22.7986
1321090527165,22.7584
1321090587165,22.7660
1321090647165,22.7740
1321090707165,22.7387
1321090767165,22.7193
1321090827165,22.7382
1321090887165,22.7938
1321090947165,22.7275
1321091007165,22.7186
1321091067165,22.7115
1321091127165,22.7199
1321091187165,22.6694
1321091247165,22.6673
1321091307165,22.7108
1321091367165,22.7135
1321091427165,22.6924
1321091487165,22.6854
1321091547165,22.6799
1321091607165,22.6959
1321091667165,22.7063
1321091727165,22.6731
1321091787165,22.6758
1321091847165,22.6851
1321091907165,22.6788
1321091967165,22.7178
1321092027176,22.7637
1321092087176,22.6815
1321092147176,22.7275
1321092207176,22.7698
1321092267176,22.6721
1321092327176,22.7351
1321092387176,22.7320
1321092447176,22.7086
1321092507176,22.6985
1321092567176,22.7482
1321092627176,22.8565
1321092687176,22.9081
1321092747176,22.9275
1321092807176,22.9124
1321092867176,22.9378
1321092927176,22.9316
1321092987176,22.8901
1321093047176,22.8221
1321093107176,22.7872
1321093167176,22.8600
1321093227176,22.8004
1321093287176,22.5919
1321093347176,22.7664
1321093407176,22.7504
1321093467176,22.8370
1321093527176,22.7795
1321093587176,22.7604
1321093647176,22.7582
1321093707176,22.7720
1321093767176,22.7601
1321093827176,22.6989
1321093887176,22.7552
1321093947176,22.8123
1321094007176,22.7551
1321094067176,22.8621
1321094127176,22.8377
1321094187176,22.7597
1321094247176,22.8148
1321094307176,22.7753
1321094367176,22.8000
1321094427176,22.7729
1321094487176,22.7660
1321094547176,22.8142
1321094607176,22.7831
1321094667176,22.8269
1321094727176,22.7449
1321094787176,22.7719
1321094847176,22.7504
1321094907176,22.7566
1321094967176,22.7335
1321095027176,22.6972
1321095087176,22.7333
1321095147176,22.7097
1321095207176,22.7120
1321095267176,22.7351
1321095327176,22.7589
1321095387176,22.7167
1321095447176,22.6801
1321095507176,22.7666
1321095567176,22.7253
1321095627187,22.7625
1321095687187,22.7593
1321095747187,22.7265
1321095807187,22.6955
1321095867187,22.7444
1321095927187,22.7325
1321095987187,22.7265
1321096047187,22.7129
1321096107187,22.7326
1321096167187,22.7325
1321096227187,22.7670
1321096287187,22.7181
1321096347187,22.7049
1321096407187,22.7427
1321096467187,22.7845
1321096527187,22.6907
1321096587187,22.7520
1321096647187,22.7213
1321096707187,22.7321
1321096767187,22.7235
1321096827187,22.7220
1321096887187,22.7499
1321096947187,22.8311
1321097007187,22.6914
1321097067187,22.7681
1321097127187,22.7355
1321097187187,22.6852
1321097247187,22.7103
1321097307187,22.7300
1321097367187,22.6808
1321097427187,22.6675
1321097487187,22.6726
1321097547187,22.7226
1321097607187,22.7586
1321097667187,22.7175
1321097727187,22.6817
1321097787187,22.6929
1321097847187,22.6946
1321097907187,22.6565
1321097967187,22.6725
1321098027187,22.7249
1321098087187,22.7761
1321098147187,22.7604
1321098207187,22.6637
1321098267187,22.7518
1321098327187,22.7708
1321098387187,22.7539
1321098447187,22.7793
1321098507187,22.8002
1321098567187,22.7691
1321098627187,22.8166
1321098687187,22.7796
1321098747187,22.8498
1321098807187,22.9130
1321098867187,22.8298
1321098927187,22.8683
1321098987187,22.8281
1321099047187,22.7494
1321099107187,22.8101
1321099167187,22.8064
1321099227199,22.7813
1321099287199,22.8222
1321099347199,22.8473
1321099407199,22.8397
1321099467199,22.7789
1321099527199,22.8162
1321099587199,22.8105
1321099647199,22.8188
1321099707199,22.8446
1321099767199,22.8399
1321099827199,22.8720
1321099887199,22.8188
1321099947199,22.8099
1321100007199,22.7486
1321100067199,22.8244
1321100127199,22.8685
1321100187199,22.7660
1321100247199,22.7930
1321100307199,22.7658
1321100367199,22.7898
1321100427199,22.8048
1321100487199,22.8028
1321100547199,22.7810
1321100607199,22.8093
1321100667199,22.7996
1321100727199,22.8261
1321100787199,22.8320
1321100847199,22.7920
1321100907199,22.8423
1321100967199,22.7982
1321101027199,22.7973
1321101087199,22.8283
1321101147199,22.8760
1321101207199,22.9219
1321101267199,22.8542
1321101327199,22.7936
1321101387199,22.7116
1321101447199,22.8365
1321101507199,22.8386
1321101567199,22.8423
1321101627199,22.8245
1321101687199,22.8108
1321101747199,22.8922
1321101807199,22.8831
1321101867199,22.8654
1321101927199,22.8548
1321101987199,22.9447
1321102047199,22.9273
1321102107199,22.9537
1321102167199,22.9857
1321102227199,23.0886
1321102287199,23.2628
1321102347199,23.4048
1321102407199,23.5214
1321102467199,23.4830
1321102527199,23.4303
1321102587199,23.3937
1321102647199,23.3555
1321102707199,23.2597
1321102767199,23.2714
1321102827210,23.1789
1321102887210,23.1587
1321102947210,23.2415
1321103007211,23.1785
1321103067211,23.1563
1321103127211,23.2045
1321103187211,23.1396
1321103247210,23.1202
1321103307211,23.1189
1321103367211,23.0447
1321103427211,23.0841
1321103487211,23.0548
1321103547211,23.0559
1321103607211,22.9861
1321103667211,22.9977
1321103727211,23.0007
1321103787211,22.9718
1321103847211,22.9609
1321103907210,22.9430
1321103967210,22.9807
1321104027210,22.9680
1321104087210,22.9120
1321104147210,22.9207
1321104207210,22.9275
1321104267210,22.8725
1321104327211,22.9001
1321104387211,22.8985
1321104447211,22.9095
1321104507211,22.9141
1321104567211,22.8961
1321104627210,22.9595
1321104687211,22.9568
1321104747211,22.9687
1321104807211,22.8949
1321104867211,22.9345
1321104927211,22.8919
1321104987211,22.9044
1321105047211,22.9343
1321105107211,22.9476
1321105167211,22.9340
1321105227211,23.0132
1321105287210,22.9326
1321105347210,22.9531
1321105407210,22.8885
1321105467210,22.9393
1321105527210,22.9055
1321105587210,22.9775
1321105647210,22.9801
1321105707211,22.9632
1321105767211,22.9767
1321105827211,23.0478
1321105887211,22.9639
1321105947210,22.8772
1321106007211,22.9077
1321106067211,22.9232
1321106127211,23.0051
1321106187211,22.9917
1321106247211,22.9576
1321106307211,22.9281
1321106367211,22.9566
1321106427222,22.9553
1321106487222,22.9518
1321106547222,22.9926
1321106607222,22.9691
1321106667222,22.9178
1321106727222,22.9939
1321106787222,22.9828
1321106847222,22.9737
1321106907222,22.9653
1321106967222,22.9760
1321107027222,22.9269
1321107087222,22.9575
1321107147222,23.0123
1321107207222,22.9853
1321107267222,23.0032
1321107327222,22.9299
1321107387222,22.9714
1321107447222,22.9737
1321107507222,22.9887
1321107567222,22.9680
1321107627222,22.9525
1321107687222,22.9873
1321107747222,22.9444
1321107807222,22.9383
1321107867222,22.9745
1321107927222,23.0488
1321107987222,22.9815
1321108047222,23.0199
1321108107222,22.9574
1321108167222,23.0037
1321108227222,22.9795
1321108287222,22.9437
1321108347222,22.9988
1321108407222,22.9720
1321108467222,22.9847
1321108527222,22.9666
1321108587222,22.9188
1321108647222,23.0118
1321108707222,22.9810
1321108767222,22.9766
1321108827222,23.0294
1321108887222,23.0004
1321108947222,23.0010
1321109007222,22.9209
1321109067222,22.9633
1321109127222,22.9231
1321109187222,22.9691
1321109247222,22.8959
1321109307222,22.9310
1321109367222,22.8665
1321109427222,22.9304
1321109487222,23.0652
1321109547222,22.9986
1321109607222,22.9473
1321109667222,22.9332
1321109727222,22.9373
1321109787222,22.9749
1321109847222,22.9867
1321109907222,22.9376
1321109967222,22.9587
1321110027234,22.9081
1321110087234,22.9996
1321110147234,22.9050
1321110207235,22.8764
1321110267235,22.8947
1321110327234,22.8346
1321110387234,22.9214
1321110447234,22.9001
1321110507234,22.8890
1321110567234,22.9106
1321110627234,22.8700
1321110687234,22.8273
1321110747234,22.8565
1321110807234,22.8866
1321110867234,22.8834
1321110927234,22.9296
1321110987234,22.9145
1321111047234,22.9475
1321111107234,22.9621
1321111167234,22.9924
1321111227234,22.9104
1321111287234,22.9350
1321111347234,22.8063
1321111407234,22.9685
1321111467234,22.8676
1321111527235,22.8751
1321111587235,22.9171
1321111647235,22.9166
1321111707234,22.8639
1321111767234,22.8831
1321111827234,22.9057
1321111887234,22.8655
1321111947234,22.8465
1321112007234,22.8584
1321112067234,22.8997
1321112127234,22.8496
1321112187234,22.8687
1321112247234,22.8373
1321112307234,22.8525
1321112367234,22.8297
1321112427234,22.8455
1321112487234,22.8356
1321112547234,22.8613
1321112607234,22.9039
1321112667234,22.8716
1321112727234,22.8437
1321112787234,22.8692
1321112847234,22.8270
1321112907235,22.8492
1321112967235,22.8768
1321113027234,22.8850
1321113087234,22.9135
1321113147234,22.8320
1321113207234,22.8771
1321113267234,23.0195
1321113327234,22.9646
1321113387234,23.0389
1321113447234,22.9774
1321113507234,22.9713
1321113567234,22.9973
1321113627246,22.9264
1321113687246,22.8924
1321113747246,22.9153
1321113807246,22.8602
1321113867246,22.8990
1321113927246,22.8826
1321113987246,22.9112
1321114047246,22.8794
1321114107246,22.8860
1321114167246,22.8675
1321114227246,22.8567
1321114287246,22.9087
1321114347246,22.8276
1321114407246,22.8476
1321114467246,22.8580
1321114527246,22.8684
1321114587246,22.8563
1321114647246,22.8211
1321114707246,22.8734
1321114767246,22.8515
1321114827246,22.8446
1321114887246,22.8678
1321114947246,22.8609
1321115007246,22.8996
1321115067246,22.8585
1321115127246,22.8817
1321115187246,22.8698
1321115247246,22.8940
1321115307246,22.8793
1321115367246,22.9283
1321115427246,22.9147
1321115487246,22.8786
1321115547246,22.8993
1321115607246,22.7966
1321115667246,22.8639
1321115727246,22.8789
1321115787246,22.8167
1321115847246,22.8428
1321115907246,22.7905
1321115967246,22.8345
1321116027246,22.8781
1321116087246,22.8715
1321116147246,22.8799
1321116207246,22.8032
1321116267246,22.8076
1321116327246,22.7758
1321116387246,22.8413
1321116447246,22.7739
1321116507246,22.8022
1321116567246,22.7769
1321116627246,22.8132
1321116687246,22.8356
1321116747246,22.8118
1321116807246,22.7945
1321116867246,22.8471
1321116927246,22.8144
1321116987246,22.8049
1321117047246,22.8462
1321117107246,22.8213
1321117167246,22.8356
1321117227258,22.8001
1321117287258,22.7827
1321117347258,22.7631
1321117407258,22.7731
1321117467258,22.7868
1321117527258,22.7399
1321117587258,22.7442
1321117647258,22.7836
1321117707258,22.7652
1321117767258,22.6823
1321117827258,22.7549
1321117887258,22.7882
1321117947258,22.7139
1321118007258,22.7496
1321118067258,22.7650
1321118127258,22.7704
1321118187258,22.6366
1321118247258,22.7062
1321118307258,22.7518
1321118367258,22.7533
1321118427258,22.6974
1321118487258,22.6519
1321118547258,22.7131
1321118607258,22.6773
1321118667258,22.7096
1321118727258,22.7240
1321118787258,22.6997
1321118847258,22.6419
1321118907258,22.6494
1321118967258,22.7029
1321119027258,22.7450
1321119087258,22.7553
1321119147258,22.7074
1321119207258,22.6870
1321119267258,22.7148
1321119327258,22.7104
1321119387258,22.6750
1321119447258,22.6728
1321119507258,22.6848
1321119567258,22.6667
1321119627258,22.7194
1321119687258,22.6810
1321119747258,22.7566
1321119807258,22.6815
1321119867258,22.7060
1321119927258,22.6957
1321119987258,22.7497
1321120047258,22.7462
1321120107258,22.7210
1321120167258,22.7339
1321120227258,22.7576
1321120287258,22.7722
1321120347258,22.7401
1321120407258,22.7310
1321120467258,22.7294
1321120527258,22.7693
1321120587258,22.7680
1321120647258,22.7668
1321120707258,22.7584
1321120767258,22.7768
1321120827270,22.7668
1321120887270,22.7493
1321120947270,22.6846
1321121007270,22.7748
1321121067270,22.7442
1321121127270,22.7366
1321121187270,22.8030
1321121247270,22.8051
1321121307270,22.8340
1321121367270,22.8105